Regional Weather Roundup
Issued by NWS

Home | Current Version | Previous Version | Graphics & Text | Print | Product List | Glossary On
Versions: 1 2 3 4 5 6 7 8 9 10 11 12 13 14 15 16 17 18 19 20 21 22 23 24 25 26 27
000
ASUS45 KBOU 250007
RWRCO

WEATHER ROUNDUP FOR COLORADO
NATIONAL WEATHER SERVICE DENVER/BOULDER CO
600 PM MDT FRI OCT 24 2014

NOTE: "FAIR" INDICATES FEW OR NO CLOUDS BELOW 12000 FEET WITH NO
SIGNIFICANT WEATHER AND/OR OBSTRUCTIONS TO VISIBILITY.

COZ001>005-013-030-031-250100-
...NORTHWEST COLORADO...

CITY           SKY/WX    TMP DP  RH WIND       PRES   REMARKS
CRAIG          CLEAR     63  29  27 SW7       30.24S
HAYDEN         CLEAR     64  27  24 W6        30.26S
MEEKER         CLEAR     66  28  24 SW8       30.27S
MOUNT WERNER   NOT AVBL
STEAMBOAT SPGS CLEAR     65  27  23 W5        30.29R
WALDEN         CLEAR     55  21  26 SW8G17    30.36S
$$

COZ006>008-011-250100-
...WEST CENTRAL VALLEYS...

CITY           SKY/WX    TMP DP  RH WIND       PRES   REMARKS
GRAND JUNCTION CLEAR     69  36  29 W5        30.20F
MONTROSE       CLEAR     72  31  22 NW5       30.26F
EAGLE          CLEAR     68  25  19 SW8       30.31S
RIFLE          CLEAR     68  34  28 SW7       30.23F
DELTA          CLEAR     75  35  23 SW5       30.22F
NUCLA          CLEAR     72  30  21 NE3       30.30F
$$

COZ017>023-064>068-250100-
...SOUTHWEST COLORADO...

CITY           SKY/WX    TMP DP  RH WIND       PRES   REMARKS
DURANGO        CLEAR     67  33  28 SW10      30.31S
CORTEZ         CLEAR     70  27  20 MISG      30.28F
PAGOSA SPRINGS CLEAR     67  27  22 SW5       30.38S
TELLURIDE      CLEAR     61  23  23 W9        30.48F
WOLF CREEK PAS CLEAR     45  27  49 SW12G18     N/A
$$

COZ009-010-012-014-032>034-037-058>063-250100-
...CENTRAL COLORADO...

CITY           SKY/WX    TMP DP  RH WIND       PRES   REMARKS
ASPEN          CLEAR     62  27  26 NW3       30.36R
BUENA VISTA    CLEAR     63  18  17 SW9       30.35R
COPPER MTN     CLEAR     46  14  27 W13G18    30.64R
BERTHOUD PASS  FAIR      41  36  81 NW15      30.66S
COTTONWOOD PAS CLEAR     59  12  15 NW5       30.48S
GUNNISON       CLEAR     66  27  22 N5        30.38S
KREMMLING      CLEAR     64   9  11 SW13G18     N/A
LEADVILLE      CLEAR     53  19  26 N6        30.48R
MONARCH PASS   CLEAR     46  21  36 W31       30.71S
SALIDA         CLEAR     66  20  17 SW8       30.39S
SUNLIGHT       CLEAR     46  23  39 CALM      30.57S
WILKERSON PASS NOT AVBL
$$

COZ069>075-250100-
...SAN LUIS VALLEY/SANGRE DE CRISTO MOUNTAINS...

CITY           SKY/WX    TMP DP  RH WIND       PRES   REMARKS
ALAMOSA        CLEAR     67  22  18 E3        30.33F
LA VETA PASS   CLEAR     54  14  20 S8G16     30.50S
SAGUACHE       CLEAR     64  28  25 CALM      30.38R
$$

COZ035-036-038>040-250100-
...NORTHERN COLORADO FRONT RANGE...

CITY           SKY/WX    TMP DP  RH WIND       PRES   REMARKS
DENVER INTL AP CLEAR     71  25  17 E7        30.15R
DMNS CITY PARK   N/A     72  22  15 E3        30.14R
AURORA         CLEAR     70  29  21 E8        30.18R
FRONT RANGE AP NOT AVBL
ERIE MUNI ARPT CLEAR     73  24  15 S5        30.13R
BOULDER MUN AP CLEAR     73  27  17 W9        30.15R
CENTENNIAL     PTCLDY    69  26  20 E5        30.17R
BROOMFIELD     NOT AVBL
FORT COLLINS   CLEAR     72  28  20 NE5       30.13R
LONGMONT       CLEAR     75  23  14 CALM      30.15R
$$

COZ041-046-047-076>085-087-088-250100-
...PIKES PEAK/PALMER DIVIDE AND SOUTHERN FOOTHILLS...

CITY           SKY/WX    TMP DP  RH WIND       PRES   REMARKS
COLO. SPRINGS  CLEAR     69  23  17 S8        30.22R
A. F. ACADEMY  CLEAR     68  21  17 S10       30.23R
ELLICOTT       NOT AVBL
FALCON         CLEAR     64  23  21 S7        30.27S
FORT CARSON    CLEAR     69  24  18 S6        30.19R
LIMON          CLEAR     66  29  24 SE6       30.17R
MONUMENT HILL  CLEAR     63  23  22 S9        30.26R
TRINIDAD       CLEAR     75  29  18 CALM      30.19R
$$

COZ042>045-048>051-090-091-250100-
...NORTHEAST COLORADO...

CITY           SKY/WX    TMP DP  RH WIND       PRES   REMARKS
GREELEY ARPT   CLEAR     72  30  21 E5        30.12S
AKRON          CLEAR     72  27  18 S5        30.13R
BURLINGTON     CLEAR     77  25  14 CALM      30.10S
WRAY           CLEAR     79  26  14 S3        30.06S
STERLING       CLEAR     72  34  25 W5        30.07R
HOLYOKE        CLEAR     70  36  28 CALM      30.06S
FORT MORGAN    CLEAR     74  24  15 CALM      30.11S
$$

COZ086-089-092>099-250100-
...SOUTHEAST COLORADO...

CITY           SKY/WX    TMP DP  RH WIND       PRES   REMARKS
PUEBLO         CLEAR     76  22  13 E7        30.11R
LA JUNTA       CLEAR     80  28  15 E6        30.08S
LAMAR          CLEAR     75  38  26 NE7       30.05S
SPRINGFIELD      N/A     76  36  23 SE5       30.10S
$$



USA.gov is the U.S. government's official web portal to all federal, state and local government web resources and services.